Orbital Elements at Epoch 2459200.5 (2020-Dec-17.0) TDB
Reference: JPL 36 (heliocentric ecliptic J2000)
Element | Value | Uncertainty (1-sigma) | Units |
e | .1982671175719863 | 2.0962e-08 | |
a | 2.378561508934652 | 5.6915e-09 | au |
q | 1.906970974590504 | 5.0478e-08 | au |
i | 2.666182780764247 | 9.29e-07 | deg |
node | 31.16934254682444 | 1.4782e-05 | deg |
peri | 22.39164468360743 | 1.5872e-05 | deg |
M | 22.75906817657573 | 5.3112e-06 | deg |
tp | 2459115.792476908866 (2020-Sep-23.29247691) | 1.9623e-05 | TDB |
period | 1339.89265624654 3.67 | 4.8092e-06 1.317e-08 | d yr |
n | .2686782395005232 | 9.6436e-10 | deg/d |
Q | 2.8501520432788 | 6.82e-09 | au |
|
| | Orbit Determination Parameters
Additional Information
|